• In Uzbekistan
  • List of Countries
  • For 7 days
  • Water Temperature
  • Satellite Maps
  • Weather Map
  • Weather Widgets
  • user-avatar
    Login

    Hourly Weather Lezhe

    Today, 6 December, Tuesday

    Time Temperature Precipitation Wind Pressure Humidity
    00:00 +5°C° 0 mm 2 mps 746 mmHg 82%
    01:00 +6°C° 0 mm 2 mps 746 mmHg 82%
    02:00 +6°C° 0 mm 2 mps 746 mmHg 84%
    03:00 +6°C° 0 mm 2 mps 745 mmHg 85%
    04:00 +6°C° 0 mm 1 mps 745 mmHg 87%
    05:00 +6°C° 0 mm 1 mps 745 mmHg 88%
    06:00 +6°C° 0 mm 1 mps 745 mmHg 90%
    07:00 +6°C° 0 mm 1 mps 745 mmHg 91%
    08:00 +8°C° 0 mm 1 mps 745 mmHg 84%
    09:00 +10°C° 0 mm 1 mps 745 mmHg 77%
    10:00 +12°C° 0 mm 1 mps 745 mmHg 70%
    11:00 +12°C° 0 mm 1 mps 745 mmHg 68%
    12:00 +13°C° 0 mm 1 mps 745 mmHg 65%
    13:00 +13°C° 0 mm 1 mps 744 mmHg 63%
    14:00 +11°C° 0 mm 1 mps 744 mmHg 72%
    15:00 +10°C° 0 mm 1 mps 744 mmHg 80%
    16:00 +8°C° 0 mm 1 mps 744 mmHg 88%
    17:00 +8°C° 0 mm 1 mps 745 mmHg 88%
    18:00 +7°C° 0 mm 1 mps 745 mmHg 87%
    19:00 +7°C° 0 mm 1 mps 745 mmHg 87%
    20:00 +7°C° 0 mm 1 mps 745 mmHg 85%
    21:00 +7°C° 0 mm 1 mps 746 mmHg 83%
    22:00 +6°C° 0 mm 2 mps 746 mmHg 82%
    23:00 +6°C° 0 mm 2 mps 746 mmHg 81%

    Tomorrow, 7 December, Wednesday

    Time Temperature Precipitation Wind Pressure Humidity
    00:00 +5°C° 0 mm 2 mps 746 mmHg 80%
    01:00 +5°C° 0 mm 2 mps 746 mmHg 79%
    02:00 +5°C° 0 mm 2 mps 746 mmHg 79%
    03:00 +4°C° 0 mm 3 mps 746 mmHg 79%
    04:00 +3°C° 0 mm 3 mps 746 mmHg 78%
    05:00 +3°C° 0 mm 3 mps 746 mmHg 77%
    06:00 +3°C° 0 mm 3 mps 747 mmHg 77%
    07:00 +3°C° 0 mm 3 mps 747 mmHg 76%
    08:00 +5°C° 0 mm 3 mps 747 mmHg 69%
    09:00 +7°C° 0 mm 3 mps 748 mmHg 62%
    10:00 +9°C° 0 mm 3 mps 748 mmHg 55%
    11:00 +9°C° 0 mm 3 mps 748 mmHg 54%
    12:00 +10°C° 0 mm 3 mps 748 mmHg 52%
    13:00 +11°C° 0 mm 4 mps 748 mmHg 50%
    14:00 +8°C° 0 mm 4 mps 748 mmHg 56%
    15:00 +7°C° 0 mm 4 mps 748 mmHg 61%
    16:00 +5°C° 0 mm 4 mps 748 mmHg 67%
    17:00 +4°C° 0 mm 4 mps 749 mmHg 69%
    18:00 +4°C° 0 mm 4 mps 749 mmHg 70%
    19:00 +3°C° 0 mm 4 mps 750 mmHg 72%
    20:00 +1°C° 0 mm 4 mps 750 mmHg 71%
    21:00 +1°C° 0 mm 4 mps 750 mmHg 70%
    22:00 +2°C° 0 mm 3 mps 751 mmHg 70%
    23:00 +2°C° 0 mm 3 mps 751 mmHg 68%

    Day after tomorrow, 8 December, Thursday

    Time Temperature Precipitation Wind Pressure Humidity
    00:00 +2°C° 0 mm 3 mps 751 mmHg 67%
    01:00 +1°C° 0 mm 3 mps 751 mmHg 66%
    02:00 +1°C° 0 mm 3 mps 751 mmHg 64%
    03:00 +1°C° 0 mm 3 mps 751 mmHg 62%
    04:00 +1°C° 0 mm 3 mps 750 mmHg 60%
    05:00 +1°C° 0 mm 3 mps 751 mmHg 58%
    06:00 +2°C° 0 mm 2 mps 751 mmHg 57%
    07:00 +2°C° 0 mm 2 mps 751 mmHg 55%
    08:00 +5°C° 0 mm 2 mps 751 mmHg 49%
    09:00 +7°C° 0 mm 2 mps 751 mmHg 44%
    10:00 +10°C° 0 mm 1 mps 751 mmHg 39%
    11:00 +11°C° 0 mm 1 mps 751 mmHg 37%
    12:00 +12°C° 0 mm 1 mps 751 mmHg 36%
    13:00 +12°C° 0 mm 0 mps 750 mmHg 34%
    14:00 +9°C° 0 mm 0 mps 750 mmHg 43%
    15:00 +8°C° 0 mm 1 mps 750 mmHg 52%
    16:00 +5°C° 0 mm 1 mps 750 mmHg 62%
    17:00 +5°C° 0 mm 1 mps 750 mmHg 61%
    18:00 +5°C° 0 mm 1 mps 750 mmHg 60%
    19:00 +4°C° 0 mm 1 mps 750 mmHg 59%
    20:00 +4°C° 0 mm 1 mps 750 mmHg 57%
    21:00 +4°C° 0 mm 1 mps 750 mmHg 55%
    22:00 +4°C° 0 mm 1 mps 750 mmHg 54%
    23:00 +4°C° 0 mm 1 mps 749 mmHg 53%

    9 December, Friday

    Time Temperature Precipitation Wind Pressure Humidity
    00:00 +4°C° 0 mm 1 mps 749 mmHg 52%
    01:00 +4°C° 0 mm 1 mps 749 mmHg 52%
    02:00 +4°C° 0 mm 1 mps 749 mmHg 51%
    03:00 +4°C° 0 mm 1 mps 748 mmHg 50%
    04:00 +4°C° 0 mm 1 mps 748 mmHg 49%
    05:00 +4°C° 0 mm 1 mps 748 mmHg 49%
    06:00 +4°C° 0 mm 1 mps 748 mmHg 49%
    07:00 +4°C° 0 mm 1 mps 748 mmHg 49%
    08:00 +6°C° 0 mm 1 mps 748 mmHg 45%
    09:00 +9°C° 0 mm 1 mps 748 mmHg 40%
    10:00 +12°C° 0 mm 1 mps 748 mmHg 36%
    11:00 +12°C° 0 mm 1 mps 748 mmHg 39%
    12:00 +13°C° 0 mm 1 mps 748 mmHg 42%
    13:00 +13°C° 0 mm 1 mps 747 mmHg 44%
    14:00 +11°C° 0 mm 1 mps 747 mmHg 55%
    15:00 +8°C° 0 mm 1 mps 747 mmHg 66%
    16:00 +6°C° 0 mm 1 mps 747 mmHg 77%
    17:00 +6°C° 0 mm 1 mps 747 mmHg 75%
    18:00 +6°C° 0 mm 1 mps 747 mmHg 72%
    19:00 +6°C° 0 mm 1 mps 747 mmHg 70%
    20:00 +6°C° 0 mm 1 mps 747 mmHg 63%
    21:00 +6°C° 0 mm 1 mps 747 mmHg 57%
    22:00 +5°C° 0 mm 2 mps 747 mmHg 50%
    23:00 +5°C° 0 mm 2 mps 747 mmHg 48%

    10 December, Saturday

    Time Temperature Precipitation Wind Pressure Humidity
    00:00 +5°C° 0 mm 2 mps 747 mmHg 45%
    01:00 +5°C° 0 mm 2 mps 747 mmHg 43%
    02:00 +5°C° 0 mm 2 mps 746 mmHg 44%
    03:00 +5°C° 0 mm 2 mps 746 mmHg 44%
    04:00 +5°C° 0 mm 2 mps 746 mmHg 45%
    05:00 +5°C° 0 mm 2 mps 746 mmHg 47%
    06:00 +5°C° 0 mm 2 mps 746 mmHg 49%
    07:00 +5°C° 0 mm 2 mps 746 mmHg 52%
    08:00 +7°C° 0 mm 2 mps 746 mmHg 50%
    09:00 +10°C° 0 mm 2 mps 746 mmHg 49%
    10:00 +13°C° 0 mm 2 mps 746 mmHg 48%
    11:00 +14°C° 0 mm 2 mps 746 mmHg 48%
    12:00 +15°C° 0 mm 1 mps 745 mmHg 48%
    13:00 +16°C° 0 mm 1 mps 745 mmHg 48%
    14:00 +14°C° 0 mm 1 mps 745 mmHg 56%
    15:00 +11°C° 0 mm 1 mps 745 mmHg 64%
    16:00 +9°C° 0 mm 1 mps 744 mmHg 72%
    17:00 +8°C° 0 mm 1 mps 744 mmHg 72%
    18:00 +8°C° 0 mm 1 mps 744 mmHg 72%
    19:00 +7°C° 0 mm 1 mps 744 mmHg 72%
    20:00 +7°C° 0 mm 1 mps 744 mmHg 73%
    21:00 +6°C° 0 mm 0 mps 744 mmHg 73%
    22:00 +6°C° 0 mm 0 mps 744 mmHg 74%
    23:00 +5°C° 0 mm 0 mps 744 mmHg 75%

    11 December, Sunday

    Time Temperature Precipitation Wind Pressure Humidity
    00:00 +5°C° 0 mm 0 mps 744 mmHg 76%
    01:00 +5°C° 0 mm 0 mps 744 mmHg 76%
    02:00 +5°C° 0 mm 0 mps 743 mmHg 76%
    03:00 +5°C° 0 mm 0 mps 743 mmHg 76%
    04:00 +5°C° 0 mm 0 mps 743 mmHg 76%
    05:00 +5°C° 0 mm 0 mps 743 mmHg 76%
    06:00 +5°C° 0 mm 0 mps 743 mmHg 77%
    07:00 +5°C° 0 mm 0 mps 743 mmHg 77%
    08:00 +9°C° 0 mm 1 mps 743 mmHg 69%
    09:00 +11°C° 0 mm 1 mps 743 mmHg 60%
    10:00 +14°C° 0 mm 1 mps 743 mmHg 52%
    11:00 +14°C° 0 mm 1 mps 742 mmHg 53%
    12:00 +15°C° 0 mm 1 mps 742 mmHg 53%
    13:00 +15°C° 0 mm 1 mps 741 mmHg 54%
    14:00 +13°C° 0 mm 1 mps 741 mmHg 63%
    15:00 +11°C° 0 mm 1 mps 740 mmHg 72%
    16:00 +9°C° 0 mm 1 mps 740 mmHg 82%
    17:00 +8°C° 0 mm 1 mps 740 mmHg 82%
    18:00 +7°C° 0 mm 1 mps 740 mmHg 82%
    19:00 +7°C° 0 mm 1 mps 740 mmHg 83%
    20:00 +7°C° 0 mm 1 mps 739 mmHg 83%
    21:00 +7°C° 0 mm 1 mps 739 mmHg 83%
    22:00 +6°C° 0 mm 1 mps 739 mmHg 82%
    23:00 +6°C° 0 mm 1 mps 739 mmHg 83%
    Show more